Year,Month,Day,Hour,Minute,Value (Times are PST for temperature in C)
2021,04,23,08,13,9.20
2021,04,23,08,14,9.20
2021,04,23,08,15,9.20
2021,04,23,08,16,9.30
2021,04,23,08,17,9.30
2021,04,23,08,18,9.30
2021,04,23,08,19,9.40
2021,04,23,08,20,9.40
2021,04,23,08,21,9.50
2021,04,23,08,22,9.50
2021,04,23,08,23,9.50
2021,04,23,08,24,9.50
2021,04,23,08,25,9.60
2021,04,23,08,26,9.60
2021,04,23,08,27,9.60
2021,04,23,08,28,9.70
2021,04,23,08,29,9.70
2021,04,23,08,30,9.70
2021,04,23,08,31,9.60
2021,04,23,08,32,9.60
2021,04,23,08,33,9.60
2021,04,23,08,34,9.60
2021,04,23,08,35,9.60
2021,04,23,08,36,9.60
2021,04,23,08,37,9.50
2021,04,23,08,38,9.60
2021,04,23,08,39,9.60
2021,04,23,08,40,9.60
2021,04,23,08,41,9.60
2021,04,23,08,42,9.70
2021,04,23,08,43,9.70
2021,04,23,08,44,9.70
2021,04,23,08,45,9.70
2021,04,23,08,46,9.70
2021,04,23,08,47,9.70
2021,04,23,08,48,9.70
2021,04,23,08,49,9.70
2021,04,23,08,50,9.70
2021,04,23,08,51,9.80
2021,04,23,08,52,9.80
2021,04,23,08,53,9.90
2021,04,23,08,54,9.80
2021,04,23,08,55,9.80
2021,04,23,08,56,9.80
2021,04,23,08,57,9.80
2021,04,23,08,58,9.80
2021,04,23,08,59,9.80
2021,04,23,09,00,9.90
2021,04,23,09,01,10.00
2021,04,23,09,02,10.00
2021,04,23,09,03,9.90
2021,04,23,09,04,9.90
2021,04,23,09,05,10.00
2021,04,23,09,06,10.00
2021,04,23,09,07,10.00
2021,04,23,09,08,10.00
2021,04,23,09,09,10.10
2021,04,23,09,10,10.10
2021,04,23,09,11,10.20
2021,04,23,09,12,10.10
2021,04,23,09,13,10.10
2021,04,23,09,14,10.20
2021,04,23,09,15,10.10
2021,04,23,09,16,10.10
2021,04,23,09,17,10.10
2021,04,23,09,18,10.10
2021,04,23,09,19,10.10
2021,04,23,09,20,10.10
2021,04,23,09,21,10.10
2021,04,23,09,22,10.10
2021,04,23,09,23,10.10
2021,04,23,09,24,10.10
2021,04,23,09,25,10.10
2021,04,23,09,26,10.10
2021,04,23,09,27,10.10
2021,04,23,09,28,10.10
2021,04,23,09,29,10.10
2021,04,23,09,30,10.10
2021,04,23,09,31,10.10
2021,04,23,09,32,10.10
2021,04,23,09,33,10.10
2021,04,23,09,34,10.10
2021,04,23,09,35,10.10
2021,04,23,09,36,10.10
2021,04,23,09,37,10.00
2021,04,23,09,38,10.00
2021,04,23,09,39,10.00
2021,04,23,09,40,10.00
2021,04,23,09,41,10.00
2021,04,23,09,42,9.90
2021,04,23,09,43,9.90
2021,04,23,09,44,9.80
2021,04,23,09,45,9.80
2021,04,23,09,46,9.80
2021,04,23,09,47,9.80
2021,04,23,09,48,9.80
2021,04,23,09,49,9.70
2021,04,23,09,50,9.70
2021,04,23,09,51,9.70
2021,04,23,09,52,9.70
2021,04,23,09,53,9.70
2021,04,23,09,54,9.70
2021,04,23,09,55,9.70
2021,04,23,09,56,9.70
2021,04,23,09,57,9.70
2021,04,23,09,58,9.80
2021,04,23,09,59,9.80
2021,04,23,10,00,9.80
2021,04,23,10,01,9.70
2021,04,23,10,02,9.70
2021,04,23,10,03,9.80
2021,04,23,10,04,9.80
2021,04,23,10,05,9.80
2021,04,23,10,06,9.80
2021,04,23,10,07,9.80
2021,04,23,10,08,9.80
2021,04,23,10,09,9.80
2021,04,23,10,10,9.80
2021,04,23,10,11,9.80
2021,04,23,10,12,9.80
2021,04,23,10,13,9.80
2021,04,23,10,14,9.80
2021,04,23,10,15,9.80
2021,04,23,10,16,9.80
2021,04,23,10,17,9.80
2021,04,23,10,18,9.80
2021,04,23,10,19,9.80
2021,04,23,10,20,9.80
2021,04,23,10,21,9.80
2021,04,23,10,22,9.90
2021,04,23,10,23,9.90
2021,04,23,10,24,10.00
2021,04,23,10,25,10.00
2021,04,23,10,26,10.00
2021,04,23,10,27,10.00
2021,04,23,10,28,10.00
2021,04,23,10,29,10.00
2021,04,23,10,30,10.00
2021,04,23,10,31,9.90
2021,04,23,10,32,9.90
2021,04,23,10,33,9.90
2021,04,23,10,34,9.80
2021,04,23,10,35,9.80
2021,04,23,10,36,9.80
2021,04,23,10,37,9.80
2021,04,23,10,38,9.80
2021,04,23,10,39,9.70
2021,04,23,10,40,9.70
2021,04,23,10,41,9.70
2021,04,23,10,42,9.70
2021,04,23,10,43,9.60
2021,04,23,10,44,9.50
2021,04,23,10,45,9.50
2021,04,23,10,46,9.50
2021,04,23,10,47,9.50
2021,04,23,10,48,9.50
2021,04,23,10,49,9.50
2021,04,23,10,50,9.40
2021,04,23,10,51,9.40
2021,04,23,10,52,9.40
2021,04,23,10,53,9.40
2021,04,23,10,54,9.40
2021,04,23,10,55,9.40
2021,04,23,10,56,9.40
2021,04,23,10,57,9.40
2021,04,23,10,58,9.40
2021,04,23,10,59,9.40
2021,04,23,11,00,9.50
2021,04,23,11,01,9.50
2021,04,23,11,02,9.60
2021,04,23,11,03,9.60
2021,04,23,11,04,9.60
2021,04,23,11,05,9.70
2021,04,23,11,06,9.70
2021,04,23,11,07,9.70
2021,04,23,11,08,9.60
2021,04,23,11,09,9.60
2021,04,23,11,10,9.60
2021,04,23,11,11,9.60
2021,04,23,11,12,9.60
2021,04,23,11,13,9.70
2021,04,23,11,14,9.70
2021,04,23,11,15,9.80
2021,04,23,11,16,9.80
2021,04,23,11,17,9.80
2021,04,23,11,18,9.80
2021,04,23,11,19,9.80
2021,04,23,11,20,9.80
2021,04,23,11,21,9.80
2021,04,23,11,22,9.80
2021,04,23,11,23,9.80
2021,04,23,11,24,9.90
2021,04,23,11,25,9.90
2021,04,23,11,26,9.90
2021,04,23,11,27,9.90
2021,04,23,11,28,9.90
2021,04,23,11,29,9.90
2021,04,23,11,30,9.90
2021,04,23,11,31,9.90
2021,04,23,11,32,9.90
2021,04,23,11,33,9.90
2021,04,23,11,34,9.90
2021,04,23,11,35,9.90
2021,04,23,11,36,9.90
2021,04,23,11,37,10.00
2021,04,23,11,38,10.10
2021,04,23,11,39,10.10
2021,04,23,11,40,10.10
2021,04,23,11,41,10.10
2021,04,23,11,42,10.10
2021,04,23,11,43,10.10
2021,04,23,11,44,10.10
2021,04,23,11,45,10.30
2021,04,23,11,46,10.40
2021,04,23,11,47,10.40
2021,04,23,11,48,10.40
2021,04,23,11,49,10.40
2021,04,23,11,50,10.40
2021,04,23,11,51,10.40
2021,04,23,11,52,10.40
2021,04,23,11,53,10.40
2021,04,23,11,54,10.50
2021,04,23,11,55,10.60
2021,04,23,11,56,10.60
2021,04,23,11,57,10.60
2021,04,23,11,58,10.70
2021,04,23,11,59,10.70
2021,04,23,12,00,10.70
2021,04,23,12,01,10.70
2021,04,23,12,02,10.70
2021,04,23,12,03,10.60
2021,04,23,12,04,10.60
2021,04,23,12,05,10.60
2021,04,23,12,06,10.50
2021,04,23,12,07,10.50
2021,04,23,12,08,10.60
2021,04,23,12,09,10.70
2021,04,23,12,10,10.70
2021,04,23,12,11,10.70
2021,04,23,12,12,10.70
2021,04,23,12,13,10.70
2021,04,23,12,14,10.70
2021,04,23,12,15,10.70
2021,04,23,12,16,10.80
2021,04,23,12,17,10.80
2021,04,23,12,18,10.80
2021,04,23,12,19,10.90
2021,04,23,12,20,10.90
2021,04,23,12,21,10.90
2021,04,23,12,22,10.90
2021,04,23,12,23,10.90
2021,04,23,12,24,10.90
2021,04,23,12,25,10.90
2021,04,23,12,26,10.90
2021,04,23,12,27,10.90
2021,04,23,12,28,10.80
2021,04,23,12,29,10.80
2021,04,23,12,30,10.80
2021,04,23,12,31,10.80
2021,04,23,12,32,10.80
2021,04,23,12,33,10.80
2021,04,23,12,34,10.80
2021,04,23,12,35,10.90
2021,04,23,12,36,10.90
2021,04,23,12,37,11.00
2021,04,23,12,38,11.00
2021,04,23,12,39,11.00
2021,04,23,12,40,11.10
2021,04,23,12,41,11.10
2021,04,23,12,42,11.10
2021,04,23,12,43,11.10
2021,04,23,12,44,11.10
2021,04,23,12,45,11.00
2021,04,23,12,46,11.00
2021,04,23,12,47,11.00
2021,04,23,12,48,11.00
2021,04,23,12,49,11.00
2021,04,23,12,50,11.00
2021,04,23,12,51,11.10
2021,04,23,12,52,11.20
2021,04,23,12,53,11.20
2021,04,23,12,54,11.20
2021,04,23,12,55,11.20
2021,04,23,12,56,11.20
2021,04,23,12,57,11.20
2021,04,23,12,58,11.30
2021,04,23,12,59,11.30
2021,04,23,13,00,11.30
2021,04,23,13,01,11.30
2021,04,23,13,02,11.30
2021,04,23,13,03,11.40
2021,04,23,13,04,11.40
2021,04,23,13,05,11.40
2021,04,23,13,06,11.30
2021,04,23,13,07,11.30
2021,04,23,13,08,11.30
2021,04,23,13,09,11.30
2021,04,23,13,10,11.30
2021,04,23,13,11,11.30
2021,04,23,13,12,11.30
2021,04,23,13,13,11.30
2021,04,23,13,14,11.30
2021,04,23,13,15,11.30
2021,04,23,13,16,11.30
2021,04,23,13,17,11.40
2021,04,23,13,18,11.50
2021,04,23,13,19,11.50
2021,04,23,13,20,11.50
2021,04,23,13,21,11.50
2021,04,23,13,22,11.50
2021,04,23,13,23,11.50
2021,04,23,13,24,11.50
2021,04,23,13,25,11.60
2021,04,23,13,26,11.60
2021,04,23,13,27,11.60
2021,04,23,13,28,11.60
2021,04,23,13,29,11.70
2021,04,23,13,30,11.70
2021,04,23,13,31,11.70
2021,04,23,13,32,11.70
2021,04,23,13,33,11.80
2021,04,23,13,34,11.80
2021,04,23,13,35,11.80
2021,04,23,13,36,11.90
2021,04,23,13,37,11.90
2021,04,23,13,38,11.90
2021,04,23,13,39,12.00
2021,04,23,13,40,12.00
2021,04,23,13,41,12.10
2021,04,23,13,42,12.00
2021,04,23,13,43,12.00
2021,04,23,13,44,12.00
2021,04,23,13,45,12.00
2021,04,23,13,46,12.10
2021,04,23,13,47,12.10
2021,04,23,13,48,12.10
2021,04,23,13,49,12.10
2021,04,23,13,50,12.10
2021,04,23,13,51,12.00
2021,04,23,13,52,12.10
2021,04,23,13,53,12.10
2021,04,23,13,54,12.20
2021,04,23,13,55,12.20
2021,04,23,13,56,12.30
2021,04,23,13,57,12.30
2021,04,23,13,58,12.40
2021,04,23,13,59,12.40
2021,04,23,14,00,12.40
2021,04,23,14,01,12.40
2021,04,23,14,02,12.50
2021,04,23,14,03,12.50
2021,04,23,14,04,12.50
2021,04,23,14,05,12.50
2021,04,23,14,06,12.40
2021,04,23,14,07,12.30
2021,04,23,14,08,12.30
2021,04,23,14,09,12.30
2021,04,23,14,10,12.30
2021,04,23,14,11,12.40
2021,04,23,14,12,12.40
2021,04,23,14,13,12.40
2021,04,23,14,14,12.50
2021,04,23,14,15,12.50
2021,04,23,14,16,12.50
2021,04,23,14,17,12.60
2021,04,23,14,18,12.60
2021,04,23,14,19,12.60
2021,04,23,14,20,12.60
2021,04,23,14,21,12.50
2021,04,23,14,22,12.50
2021,04,23,14,23,12.50
2021,04,23,14,24,12.50
2021,04,23,14,25,12.40
2021,04,23,14,26,12.40
2021,04,23,14,27,12.40
2021,04,23,14,28,12.40
2021,04,23,14,29,12.40
2021,04,23,14,30,12.30
2021,04,23,14,31,12.30
2021,04,23,14,32,12.20
2021,04,23,14,33,12.20
2021,04,23,14,34,12.20
2021,04,23,14,35,12.30
2021,04,23,14,36,12.30
2021,04,23,14,37,12.30
2021,04,23,14,38,12.20
2021,04,23,14,39,12.20
2021,04,23,14,40,12.20
2021,04,23,14,41,12.20
2021,04,23,14,42,12.20
2021,04,23,14,43,12.20
2021,04,23,14,44,12.20
2021,04,23,14,45,12.20
2021,04,23,14,46,12.10
2021,04,23,14,47,12.10
2021,04,23,14,48,12.10
2021,04,23,14,49,12.10
2021,04,23,14,50,12.10
2021,04,23,14,51,12.10
2021,04,23,14,52,12.10
2021,04,23,14,53,12.10
2021,04,23,14,54,12.10
2021,04,23,14,55,12.10
2021,04,23,14,56,12.10
2021,04,23,14,57,12.10
2021,04,23,14,58,12.00
2021,04,23,14,59,11.90
2021,04,23,15,00,11.90
2021,04,23,15,01,11.90
2021,04,23,15,02,11.90
2021,04,23,15,03,11.90
2021,04,23,15,04,11.90
2021,04,23,15,05,11.90
2021,04,23,15,06,11.90
2021,04,23,15,07,11.90
2021,04,23,15,08,11.80
2021,04,23,15,09,11.80
2021,04,23,15,10,11.90
2021,04,23,15,11,11.90
2021,04,23,15,12,11.90
2021,04,23,15,13,11.90
2021,04,23,15,14,11.90
2021,04,23,15,15,11.90
2021,04,23,15,16,11.90
2021,04,23,15,17,11.90
2021,04,23,15,18,11.90
2021,04,23,15,19,11.90
2021,04,23,15,20,11.90
2021,04,23,15,21,11.90
2021,04,23,15,22,11.90
2021,04,23,15,23,12.00
2021,04,23,15,24,12.10
2021,04,23,15,25,12.10
2021,04,23,15,26,12.20
2021,04,23,15,27,12.20
2021,04,23,15,28,12.30
2021,04,23,15,29,12.30
2021,04,23,15,30,12.40
2021,04,23,15,31,12.40
2021,04,23,15,32,12.50
2021,04,23,15,33,12.50
2021,04,23,15,34,12.60
2021,04,23,15,35,12.60
2021,04,23,15,36,12.60
2021,04,23,15,37,12.70
2021,04,23,15,38,12.70
2021,04,23,15,39,12.70
2021,04,23,15,40,12.70
2021,04,23,15,41,12.70
2021,04,23,15,42,12.70
2021,04,23,15,43,12.70
2021,04,23,15,44,12.70
2021,04,23,15,45,12.80
2021,04,23,15,46,12.80
2021,04,23,15,47,12.80
2021,04,23,15,48,12.80
2021,04,23,15,49,12.80
2021,04,23,15,50,12.90
2021,04,23,15,51,12.90
2021,04,23,15,52,12.90
2021,04,23,15,53,13.00
2021,04,23,15,54,13.00
2021,04,23,15,55,13.00
2021,04,23,15,56,13.00
2021,04,23,15,57,13.00
2021,04,23,15,58,13.00
2021,04,23,15,59,13.00
2021,04,23,16,00,13.00
2021,04,23,16,01,12.90
2021,04,23,16,02,12.90
2021,04,23,16,03,12.90
2021,04,23,16,04,12.90
2021,04,23,16,05,12.90
2021,04,23,16,06,12.90
2021,04,23,16,07,12.90
2021,04,23,16,08,12.90
2021,04,23,16,09,12.90
2021,04,23,16,10,12.90
2021,04,23,16,11,12.90
2021,04,23,16,12,12.90
2021,04,23,16,13,12.90
2021,04,23,16,14,12.90
2021,04,23,16,15,12.90
2021,04,23,16,16,12.90
2021,04,23,16,17,12.90
2021,04,23,16,18,12.90
2021,04,23,16,19,12.90
2021,04,23,16,20,12.90
2021,04,23,16,21,12.90
2021,04,23,16,22,12.90
2021,04,23,16,23,13.00
2021,04,23,16,24,13.00
2021,04,23,16,25,13.10
2021,04,23,16,26,13.10
2021,04,23,16,27,13.10
2021,04,23,16,28,13.10
2021,04,23,16,29,13.10
2021,04,23,16,30,13.10
2021,04,23,16,31,13.10
2021,04,23,16,32,13.10
2021,04,23,16,33,13.10
2021,04,23,16,34,13.00
2021,04,23,16,35,13.00
2021,04,23,16,36,13.00
2021,04,23,16,37,13.00
2021,04,23,16,38,12.90
2021,04,23,16,39,13.00
2021,04,23,16,40,13.00
2021,04,23,16,41,13.00
2021,04,23,16,42,13.00
2021,04,23,16,43,13.00
2021,04,23,16,44,13.00
2021,04,23,16,45,13.10
2021,04,23,16,46,13.10
2021,04,23,16,47,13.10
2021,04,23,16,48,13.10
2021,04,23,16,49,13.10
2021,04,23,16,50,13.10
2021,04,23,16,51,13.10
2021,04,23,16,52,13.10
2021,04,23,16,53,13.10
2021,04,23,16,54,13.10
2021,04,23,16,55,13.10
2021,04,23,16,56,13.10
2021,04,23,16,57,13.10
2021,04,23,16,58,13.10
2021,04,23,16,59,13.10
2021,04,23,17,00,13.10
2021,04,23,17,01,13.00
2021,04,23,17,02,13.00
2021,04,23,17,03,13.00
2021,04,23,17,04,13.10
2021,04,23,17,05,13.10
2021,04,23,17,06,13.10
2021,04,23,17,07,13.10
2021,04,23,17,08,13.10
2021,04,23,17,09,13.10
2021,04,23,17,10,13.10
2021,04,23,17,11,13.10
2021,04,23,17,12,13.00
2021,04,23,17,13,13.00
2021,04,23,17,14,13.00
2021,04,23,17,15,13.00
2021,04,23,17,16,13.00
2021,04,23,17,17,12.90
2021,04,23,17,18,12.90
2021,04,23,17,19,12.90
2021,04,23,17,20,12.90
2021,04,23,17,21,12.90
2021,04,23,17,22,12.90
2021,04,23,17,23,12.90
2021,04,23,17,24,12.80
2021,04,23,17,25,12.80
2021,04,23,17,26,12.80
2021,04,23,17,27,12.80
2021,04,23,17,28,12.80
2021,04,23,17,29,12.80
2021,04,23,17,30,12.80
2021,04,23,17,31,12.80
2021,04,23,17,32,12.80
2021,04,23,17,33,12.70
2021,04,23,17,34,12.70
2021,04,23,17,35,12.70
2021,04,23,17,36,12.70
2021,04,23,17,37,12.70
2021,04,23,17,38,12.70
2021,04,23,17,39,12.70
2021,04,23,17,40,12.70
2021,04,23,17,41,12.70
2021,04,23,17,42,12.70
2021,04,23,17,43,12.60
2021,04,23,17,44,12.70
2021,04,23,17,45,12.70
2021,04,23,17,46,12.70
2021,04,23,17,47,12.70
2021,04,23,17,48,12.70
2021,04,23,17,49,12.70
2021,04,23,17,50,12.70
2021,04,23,17,51,12.70
2021,04,23,17,52,12.70
2021,04,23,17,53,12.70
2021,04,23,17,54,12.70
2021,04,23,17,55,12.80
2021,04,23,17,56,12.80
2021,04,23,17,57,12.80
2021,04,23,17,58,12.80
2021,04,23,17,59,12.80
2021,04,23,18,00,12.80
2021,04,23,18,01,12.80
2021,04,23,18,02,12.80
2021,04,23,18,03,12.80
2021,04,23,18,04,12.80
2021,04,23,18,05,12.80
2021,04,23,18,06,12.80
2021,04,23,18,07,12.90
2021,04,23,18,08,12.90
2021,04,23,18,09,12.90
2021,04,23,18,10,13.00
2021,04,23,18,11,13.00
2021,04,23,18,12,13.00
2021,04,23,18,13,13.00
2021,04,23,18,14,13.00
2021,04,23,18,15,13.00
2021,04,23,18,16,13.10
2021,04,23,18,17,13.00
2021,04,23,18,18,13.00
2021,04,23,18,19,13.00
2021,04,23,18,20,12.90
2021,04,23,18,21,12.90
2021,04,23,18,22,12.90
2021,04,23,18,23,12.90
2021,04,23,18,24,12.90
2021,04,23,18,25,12.90
2021,04,23,18,26,12.90
2021,04,23,18,27,12.90
2021,04,23,18,28,12.90
2021,04,23,18,29,12.90
2021,04,23,18,30,12.90
2021,04,23,18,31,12.90
2021,04,23,18,32,12.90
2021,04,23,18,33,12.90
2021,04,23,18,34,12.90
2021,04,23,18,35,12.90
2021,04,23,18,36,12.90
